www.pogodaiklimat.ru

Погода и климат >> Архив погоды >> Россия >> Оренбургская область >> Сорочинск


АРХИВ ПОГОДЫ в Сорочинске

Время (UTC), дата Ветер
(напр.,м/с)
 
Видим.   Явления Облачность Т
(С)
Тd
(С)
f
(%)
Тe
(С)
Тes
(С)
Комфортность P
(гПа)
Po
(гПа)
Тmin
(С)
Tmax
(С)
R
(мм)
R24
(мм)
S
(см)
09 12.08 С 4 50 км в посл. час ливневой дождь 10/6 1000 м
[Cb cap Ac und]
+14.9 +13.0 88 +14 +15 1003.4 988.8
12 12.08 СЗ 5-11
{12}
50 км {ливн. осадки} 10/6 1000 м
[Cb cap Ac und]
+13.3 +9.1 76 +11 +12 1005.2 990.5
15 12.08 СЗ 4
{11}
10 км слаб. ливневой дождь 10/10 660 м
[Cb cap]
+11.7 +9.8 88 +9 +9 1006.5 991.6 +17.1 7
18 12.08 СЗ 3 20 км в посл. час ливневой дождь 10/10 420 м
[Cb cap]
+10.7 +9.1 90 +9 +9 1007.0 992.1
21 12.08 СЗ 4 20 км {ливн. осадки} 10/10 420 м
[Cb cap]
+10.0 +7.0 82 +7 +7 1006.8 991.9
00 13.08 СЗ 4 20 км {ливн. осадки} 10/10 500 м
[Cb cap]
+9.4 +6.8 84 +7 +7 1006.9 991.9
03 13.08 СЗ 5
{11}
50 км в посл. час ливневой дождь 10/10 600 м
[Cb cap]
+9.2 +6.6 84 +6 +6 1007.0 992.0 +9.1 0.3
06 13.08 СЗ 3 10 км слаб. ливневой дождь 10/10 800 м
[Cb cap]
+9.6 +8.1 90 +7 +7 1007.2 992.2 +8.8
09 13.08 СЗ 5 20 км в посл. час ливневой дождь 10/10 900 м
[Cb cap]
+10.8 +7.9 82 +8 +8 1008.0 993.1
12 13.08 С 5
{13}
50 км {ливн. осадки} 10/6 600 м
[Cb cap Ac trans]
+12.5 +8.3 76 +10 +11 1008.3 993.5
15 13.08 СЗ 4
{11}
50 км 10/6 1000 м
[Cb cap Ac und]
+12.8 +9.0 78 +11 +11 1009.6 994.7 +12.8 1
18 13.08 С 3 20 км 10/6 1000 м
[Cb cap Ac und]
+12.4 +9.1 80 +11 +11 1010.4 995.5
21 13.08 СЗ 4 20 км 10/0
[Ac und]
+12.0 +9.0 82 +10 +10 1010.3 995.4
00 14.08 С 3 20 км 8/0
[Ac trans]
+11.6 +9.4 86 +10 +10 1010.0 995.1
03 14.08 СЗ 3 50 км 10/0
[Ac und]
+12.2 +10.1 87 +11 +11 1011.0 996.1 +11.6
06 14.08 С 2 50 км 10/6 1500 м
[Sc Ac und]
+14.4 +11.5 83 +14 +15 1012.1 997.3
09 14.08 С 4 50 км 8/4 1500 м
[Sc Ac As]
+19.1 +13.6 70 +20 +23 1011.3 996.8
12 14.08 СЗ 4 50 км 10/6 1500 м
[Sc Ac und]
+19.2 +13.8 71 +20 +21 1012.2 997.7
15 14.08 С 2 50 км 10/6 1000 м
[Sc Ac trans]
+18.2 +13.8 75 +19 +19 1012.9 998.3 +20.5
18 14.08 С 3 20 км 10/5 1000 м
[Sc Ac trans]
+17.0 +13.6 80 +17 +17 1014.0 999.4
21 14.08 С 1 20 км 10/0
[Ac trans]
+16.2 +13.6 85 +17 +17 1014.2 999.5
00 15.08 З 1 20 км 4/0
[Ac trans]
+12.7 +11.9 95 +13 +13 1014.9 1000.0
03 15.08 С 1 4000 м дымка 10/0
[As trans]
+14.5 +13.3 93 +15 +16 1016.4 1001.6 +12.7
06 15.08 В 1 50 км 10/6 1000 м
[Sc Ac und]
+18.3 +14.7 80 +20 +21 1017.0 1002.4
09 15.08 С 1 50 км 10/8 1500 м
[Cu med, cong Ci fib]
+21.7 +15.6 68 +25 +28 комфорт 1017.1 1002.6
12 15.08 Ю 2 50 км 3/3 1500 м
[Cu hum]
+24.1 +14.6 55 +27 +31 жарко 1016.3 1002.0
15 15.08 В 1 50 км 3/0
[Ci fib]
+23.6 +15.2 59 +26 +27 жарко 1016.4 1002.0 +25.0
18 15.08 В 1 20 км ясно +17.4 +15.2 87 +18 +18 1017.3 1002.6
21 15.08 штиль 0 20 км ясно +14.8 +13.8 94 +14 +14 1018.1 1003.3
00 16.08 штиль 0 4000 м дымка ясно +12.6 +12.0 96 +12 +12 1018.6 1003.6
03 16.08 штиль 0 200 м туман ?/? +13.4 +13.0 97 +13 +13 1018.9 1004.0 +12.2
06 16.08 ЮВ 1 50 км {туман} ясно +23.1 +16.3 66 +28 +39 душно 1018.2 1003.8
09 16.08 ЮВ 2 50 км 4/0
[Ci fib]
+27.0 +14.2 45 +29 +41 жарко 1016.5 1002.3
12 16.08 СВ 2 50 км 8/0
[Ci fib]
+29.1 +13.0 37 +30 +36 жарко 1015.4 1001.3
15 16.08 В 2 50 км 4/0
[Ci fib]
+27.1 +13.5 43 +29 +29 жарко 1015.0 1000.8 +30.0
18 16.08 ЮВ 1 20 км 3/0
[Ci fib]
+21.3 +15.1 68 +24 +24 комфорт 1015.9 1001.4
21 16.08 ЮВ 1 20 км 3/0
[Ci fib]
+18.7 +15.0 79 +21 +21 комфорт 1016.4 1001.8
00 17.08 В 1 20 км 8/0
[Ci]
+16.5 +15.0 91 +17 +17 1016.9 1002.1
03 17.08 ЮВ 2 50 км 10/0
[Ci]
+18.0 +14.9 82 +19 +19 1016.8 1002.2 +16.3
06 17.08 В 2 50 км 8/0
[Ci fib]
+25.0 +16.5 59 +28 +36 жарко 1016.8 1002.5
09 17.08 В 1 50 км 8/4 1000 м
[Cu hum Ci fib]
+31.1 +12.5 32 +32 +40 жарко 1016.0 1002.0
12 17.08 Ю 2 50 км 6/3 1500 м
[Cu hum Ci fib]
+32.5 +10.8 26 +32 +36 жарко 1015.2 1001.2
15 17.08 Ю 2 50 км 8/0
[Ac As Ci fib]
+29.9 +11.2 31 +30 +30 жарко 1015.5 1001.4 +32.7
18 17.08 ЮВ 1 20 км 3/0
[Ci fib]
+23.4 +14.4 57 +27 +27 душно 1016.4 1002.0
21 17.08 ЮВ 1 20 км 6/0
[Ci]
+20.8 +14.7 68 +25 +25 комфорт 1016.7 1002.2
00 18.08 В 1 20 км 10/3 1000 м
[Sc Ci]
+19.4 +14.5 73 +22 +22 комфорт 1017.6 1003.0
03 18.08 ЮВ 2 50 км 10/3 1000 м
[Sc Ac As Ci]
+19.3 +14.7 75 +21 +22 комфорт 1017.8 1003.2 +18.8
06 18.08 В 2 50 км 6/0
[Cc]
+26.6 +16.4 54 +30 +38 душно 1017.6 1003.4
09 18.08 ЮВ 2 50 км 6/3 1500 м
[Cu med, cong Ci sp]
+33.6 +8.1 21 +32 +40 жарко 1017.1 1003.1
12 18.08 ЮВ 1 50 км 8/4 600 м
[Cb cap Ci sp]
+32.7 +9.3 24 +32 +36 жарко 1017.3 1003.3
15 18.08 З 2 50 км 10/6 600 м
[Cb cap Ci fib]
+29.5 +9.6 29 +29 +29 жарко 1018.4 1004.3 +34.3
18 18.08 С 1 20 км 10/4 1000 м
[Sc Ac trans]
+24.3 +12.9 49 +26 +26 жарко 1019.4 1005.1
21 18.08 штиль 0 20 км 6/0
[Ac trans]
+20.9 +14.3 66 +23 +23 комфорт 1020.0 1005.4
00 19.08 В 1 20 км ясно +21.8 +14.3 62 +25 +25 комфорт 1020.1 1005.6
03 19.08 В 2 50 км 4/4 1000 м
[Sc]
+22.2 +14.2 60 +25 +26 комфорт 1020.7 1006.3 +20.6
06 19.08 В 1 50 км 6/0
[Ci fib]
+29.2 +15.3 43 +32 +39 душно 1020.8 1006.6

 

Местоположение метеостанции Сорочинск (Оренбургская область, Россия): широта 52.43 долгота 53.13 высота над уровнем моря 123 м.

В архиве по умолчанию представлена погода в Сорочинске за последнюю неделю. Архивные данные за месяц целиком и за предыдущие месяцы, начиная с января 2011 года, Вы можете получить, выбрав интересующий диапазон дат из раскрывающегося списка и нажав кнопку "Ввод!".


*Определитесь, кто Вы:
робот инопланетянин человек

Внимание! Время в таблицах - всемирное. Для получения местного времени необходимо прибавить поправку, которая равна 5 ч.

Смотрите также архив погоды в соседних городах и на ближайших метеорологических станциях:

Погода в Новосергиевке (Оренбургская область, Россия) (52 км)
Погода в Бузулуке (Оренбургская область, Россия) (75 км)
Погода в Троицком А (Оренбургская область, Россия) (102 км)
Погода в Илеке (Оренбургская область, Россия) (103 км)
Погода в Первомайском (Оренбургская область, Россия) (117 км)
Погода в Шарлыке (Оренбургская область, Россия) (123 км)
Погода в Авангард Зерносовхозе (Самарская область, Россия) (127 км)
Погода в Аксае (Западно-Казахстанская область, Казахстан) (139 км)
Погода в Бугуруслане (Оренбургская область, Россия) (140 км)
Погода в Абдулино (Оренбургская область, Россия) (140 км)

Пояснения к столбцам:

Ветер - указаны скорость ветра в м/с - средняя за 10 мин, порывы в срок и между сроками (в фигурных скобках) и направление, откуда дует ветер: С - северный, СВ - северо-восточный, В - восточный, ЮВ - юго-восточный, Ю - южный, ЮЗ - юго-западный, З - западный, СЗ - северо-западный.
Видимость - горизонтальная дальность видимости в метрах или километрах. При видимости от 1 до 10 км при отсутствии осадков обычно наблюдается дымка, при ухудшении видимости до 1 км и менее - туман. В сухую погоду видимость может ухудшаться дымом, пылью или мглою.
Явления - указаны атмосферные явления, наблюдавшиеся в срок или в последний час перед сроком; фигурными скобками обозначены явления, наблюдавшиеся между сроками (за 1-3 часа до срока); квадратными скобками обозначены град или гололедные отложения с указанием их диаметра в мм.
Облачность - указаны через наклонную черту общая и нижняя облачность в баллах и высота нижней границы облаков в метрах; квадратными скобками обозначены формы облаков: Ci - перистые, Cs - перисто-слоистые, Cc - перисто-кучевые, Ac - высококучевые, As - высокослоистые, Sc - слоисто-кучевые, Ns - слоисто-дождевые, Cu - кучевые, Cb - кучево-дождевые. Подробнее классификацию облаков см. в Атласе облаков (PDF).
T - Температура воздуха - температура, измеренная на высоте 2 м над землей.
Td - Температура точки росы - температура, при понижении до которой содержащийся в воздухе водяной пар достигнет насыщения.
f - Относительная влажность воздуха - влажноcть воздуха, измеренная на высоте 2 м над землей.
Te - Эффективная температура - температура, которую ощущает одетый по сезону человек в тени. Характеристика душности погоды. При расчете учитывается влияние влажности воздуха и скорости ветра на теплоощущения человека.
Tes - Эффективная температура на солнце - температура, которую ощущает человек, с поправкой на солнечный нагрев. Характеристика знойности погоды. Зависит от высоты солнца над горизонтом, облачности и скорости ветра. Ночью, в пасмурную погоду, а также при ветре 12 м/с и более поправка равна нулю.
P - Атмосферное давление - приведенное к уровню моря атмосферное давление.
Po - Атмосферное давление - измеренное на уровне метеостанции атмосферное давление.
Tmin - Минимальная температура - минимум температуры воздуха на высоте 2 м над землей.
Tmax - Максимальная температура - максимум температуры воздуха на высоте 2 м над землей.
R - Количество осадков - Количество выпавших осадков за период времени, мм. При наведении курсора мыши на число - период времени, за который выпало указанное количество осадков.
R24 - Количество осадков - Количество выпавших осадков за 24 часа, мм.
S - Снежный покров - Высота снежного покрова, см. При наведении курсора мыши на число - состояние снежного покрова и степень покрытия местности в баллах.